Temperature
27 26 25 26 27 28 29 29 28 28 28 28 28 28 28 27 27 26 25 24 23 22 21 20 19 18 18 17 17 16 15 14 14 14 13 13 12 12 11 11 11 11 10 10
27 27 27 27 28 29 29 30 29 29 29 29 29 28 28 27 27 26 25 24 23 22 21 20 19 18 18 17 16 15 15 14 14 14 13 13 12 12 11 11 11 11 10 10
27 28 28 28 29 30 30 30 30 29 29 29 28 28 28 27 27 26 25 24 23 22 21 20 19 18 17 17 16 15 15 15 14 14 13 13 12 12 11 11 11 11 11 10
27 26 25 28 30 30 30 30 30 30 30 29 29 28 27 27 26 26 25 24 23 22 21 20 19 18 17 17 16 16 15 15 14 14 13 13 12 12 11 11 11 11 10 10
26 25 26 27 28 29 29 29 30 30 29 29 28 28 27 26 25 25 24 24 23 22 21 20 19 18 17 17 16 16 16 15 14 14 13 13 12 12 11 11 11 11 10 10
26 25 25 26 27 28 28 27 29 29 29 29 28 27 27 26 25 24 24 23 22 21 20 19 19 18 17 17 16 16 15 15 14 14 13 13 12 12 12 11 11 11 10 10
26 26 26 26 27 27 25 25 27 28 28 28 27 27 26 25 24 24 23 22 21 21 20 19 18 18 17 17 16 16 15 15 14 14 13 13 12 12 12 11 11 11 10 10
26 25 24 25 26 24 23 24 26 27 27 27 26 26 25 25 24 23 22 22 21 20 20 19 18 18 17 17 16 15 15 15 14 14 13 13 12 12 11 11 11 11 11 11
24 23 22 22 22 23 24 24 25 26 27 26 26 25 25 24 23 22 22 21 21 20 19 18 18 17 17 16 16 15 15 15 14 14 13 13 12 12 11 11 11 11 11 11
24 23 22 22 22 23 23 24 25 25 26 26 25 25 24 23 22 22 21 21 20 20 19 18 17 17 17 16 16 15 15 15 14 13 13 13 12 12 12 11 11 11 11 10
24 24 24 23 23 23 23 24 24 25 25 25 24 24 23 23 22 21 21 20 20 19 18 18 17 17 17 16 16 15 15 14 14 13 13 13 13 12 12 12 11 11 11 10
23 23 23 23 23 23 23 24 24 23 23 23 23 23 23 22 21 21 20 20 19 19 18 17 17 17 16 16 15 15 14 14 13 13 13 13 13 12 12 12 12 11 11 11
23 23 23 23 22 23 23 23 23 22 22 22 22 21 21 21 20 20 19 19 18 18 17 17 16 16 15 15 15 14 14 14 13 13 13 13 12 12 12 12 12 12 11 11
22 22 22 22 22 22 22 22 21 21 20 20 20 20 20 19 19 19 18 18 17 17 17 16 16 15 15 15 14 14 14 13 13 13 13 13 12 12 12 12 12 12 11 11
22 21 21 21 21 20 20 20 20 20 19 19 18 18 18 18 18 17 17 17 16 16 16 16 15 15 15 14 14 13 13 13 13 12 12 12 12 12 12 12 12 12 11 11
21 20 20 20 19 19 19 19 18 18 18 17 17 17 17 17 17 16 16 16 15 15 15 15 14 14 14 13 13 13 13 13 12 12 12 12 12 12 12 12 12 12 11 11
20 19 19 18 18 18 18 17 17 17 17 16 16 16 16 16 15 15 15 14 14 14 14 14 13 13 13 13 13 12 12 12 12 12 12 12 12 12 12 12 12 11 11 11
18 17 17 17 17 16 16 16 16 16 16 16 15 15 15 15 14 14 14 14 13 13 13 13 13 13 12 12 12 12 11 12 12 12 12 12 12 12 12 11 11 11 11 11
17 16 16 16 16 15 15 15 15 15 15 15 15 14 14 14 13 13 13 13 13 13 12 12 12 12 12 12 11 11 11 11 11 11 11 11 11 11 11 11 11 11 11 11
16 16 16 15 15 15 15 15 14 14 14 14 14 14 13 13 13 13 13 12 13 12 12 12 12 12 11 11 11 11 11 11 11 11 11 11 11 11 11 11 11 11 10 10
15 15 15 15 15 14 14 14 14 14 14 13 13 13 13 12 12 12 12 12 12 12 12 11 11 11 11 11 10 10 10 10 10 11 11 11 11 11 11 10 10 10 10 10
15 14 14 14 14 13 13 13 13 13 13 13 13 12 12 12 12 12 12 12 12 11 11 11 11 10 10 10 10 10 10 10 10 10 10 10 10 10 10 10 10 10 10 10
14 13 13 13 13 13 13 13 13 13 13 12 12 12 12 12 12 11 12 12 11 11 10 10 10 10 10 9 9 9 9 10 10 10 10 10 10 10 10 10 10 9 9 9
13 13 13 12 12 12 12 12 12 12 12 12 12 12 12 12 12 11 11 11 11 10 10 10 10 9 9 9 9 9 9 9 9 9 9 9 9 9 9 9 9 9 9 9
12 12 12 12 12 12 12 12 12 12 12 12 12 12 12 12 11 11 11 10 10 10 10 10 9 9 9 8 8 8 8 8 8 8 8 8 8 8 8 8 8 8 8 8
12 12 12 12 12 12 12 12 12 12 12 12 12 11 11 11 11 10 10 10 10 10 9 9 9 8 8 8 8 8 7 7 7 7 7 7 7 7 7 7 7 8 8 8
12 12 12 12 12 12 12 12 12 12 11 11 11 11 10 10 10 10 10 10 9 9 9 8 8 8 8 7 7 7 6 6 6 6 6 6 6 7 7 7 7 7 7 7
Wind_Speed
7 6 10 14 16 15 11 10 9 6 6 7 9 8 8 9 10 11 12 11 10 9 8 7 6 6 5 4 3 2 1 3 3 3 3 4 5 5 6 6 8 6 6 7
11 11 13 16 16 13 12 11 9 7 3 4 7 7 8 9 10 10 11 12 12 11 10 8 7 6 5 4 4 3 3 4 3 3 4 5 5 6 6 6 6 6 7 7
12 11 12 13 11 11 10 8 6 5 2 5 6 6 6 6 7 8 9 10 11 11 10 8 7 6 5 5 5 4 4 5 4 4 4 5 6 5 6 6 6 6 7 7
11 10 12 9 7 5 5 4 3 2 5 5 5 5 5 7 7 7 7 9 10 10 10 9 8 8 7 6 5 6 6 5 4 4 5 4 5 5 5 5 6 6 7 8
10 11 10 9 7 5 5 3 2 3 4 5 5 4 5 7 8 7 6 7 9 9 10 9 8 8 7 6 6 6 5 4 4 4 4 5 6 5 6 5 6 7 8 8
11 11 10 6 4 4 3 3 0 3 3 3 3 3 2 8 9 8 7 7 8 9 9 8 7 7 6 6 6 5 4 3 3 3 5 6 6 6 6 5 7 8 8 7
13 13 7 1 1 1 3 0 4 4 2 1 1 1 5 7 8 8 8 8 8 8 8 8 8 7 6 5 4 4 3 3 4 4 5 7 7 6 6 7 7 8 9 9
10 10 5 5 3 2 2 3 4 2 1 1 2 3 5 6 7 8 9 9 10 7 7 7 7 7 6 5 4 3 3 4 5 5 7 7 5 5 6 7 8 9 8 9
2 2 1 4 3 2 2 3 5 5 4 2 1 1 3 6 7 8 8 8 8 8 8 7 8 7 7 5 4 3 4 5 5 7 7 7 7 7 7 7 7 7 6 7
1 3 4 3 1 0 2 3 5 6 6 5 4 1 2 5 6 6 7 7 7 8 8 7 7 8 7 5 4 4 5 5 6 7 8 8 6 6 7 6 6 6 6 7
2 2 2 4 4 4 5 6 7 8 7 6 4 2 2 4 4 5 5 5 5 5 5 6 6 6 6 6 5 5 6 6 7 8 9 7 7 7 8 7 7 7 7 7
2 4 3 6 7 7 6 6 7 7 8 8 6 4 3 4 4 4 4 4 4 4 4 4 5 6 5 5 5 5 6 7 7 7 7 6 6 7 10 12 13 15 15 12
4 4 4 5 5 7 8 8 9 9 9 9 9 8 7 6 5 4 3 2 2 2 2 3 3 4 4 5 5 6 7 7 7 8 8 7 7 7 7 8 12 16 17 17
6 5 5 7 8 9 9 10 10 11 12 12 11 10 9 7 6 4 3 2 1 1 1 1 2 3 3 4 5 6 8 9 9 8 9 9 8 8 8 8 7 7 10 16
6 7 7 8 9 9 10 10 11 12 12 12 11 11 10 9 7 6 6 5 4 3 2 2 3 3 3 3 4 6 8 9 8 8 8 9 9 9 9 8 7 7 6 6
7 8 9 9 9 10 11 11 11 12 12 11 10 10 9 8 7 7 7 7 5 5 5 4 3 4 4 4 5 6 8 12 11 10 10 10 9 9 8 7 7 7 7 6
8 8 8 8 8 9 10 10 10 10 10 10 10 10 9 9 8 7 7 7 6 5 5 5 5 6 6 6 7 9 10 10 11 10 10 10 10 9 8 8 8 7 6 5
10 9 8 7 7 7 8 8 8 8 8 8 9 9 9 8 8 8 8 7 7 6 5 6 7 8 8 8 7 9 10 10 9 9 8 8 9 8 8 8 9 9 6 5
9 8 7 6 6 6 7 7 8 8 8 9 9 8 8 8 8 8 7 8 8 6 5 7 9 9 9 7 8 7 9 10 10 10 9 8 9 9 8 8 8 7 6 6
6 5 4 4 5 6 6 7 8 8 8 9 8 8 8 8 9 9 9 8 6 5 6 7 8 8 7 7 8 9 10 10 11 10 9 8 8 8 7 7 7 7 6 6
3 3 4 5 6 7 8 8 9 9 8 9 9 9 9 9 9 9 9 10 5 5 7 8 7 7 7 8 9 10 10 10 10 9 9 9 8 7 6 6 6 6 6 6
3 4 5 6 7 8 8 9 10 10 10 9 10 10 10 9 10 9 8 6 5 4 7 9 8 7 9 11 10 10 10 10 9 9 8 7 6 6 6 6 5 6 6 6
4 6 7 8 9 9 11 11 11 10 10 10 10 10 10 8 9 9 9 6 6 6 8 8 7 8 10 10 10 11 11 10 8 7 7 6 5 5 5 6 5 4 4 5
7 7 8 9 10 11 12 11 11 10 11 11 10 9 7 8 7 7 7 6 6 6 9 6 6 8 9 9 10 10 9 7 7 6 6 6 6 6 4 4 5 4 4 5
9 10 11 11 11 11 11 11 12 11 11 9 9 9 8 7 8 9 9 10 9 9 9 6 5 7 8 9 9 9 7 6 6 6 7 6 6 6 5 4 4 5 5 4
9 10 10 9 10 10 11 11 10 9 10 10 10 9 9 8 10 10 9 11 11 9 9 7 6 7 7 8 9 8 7 6 6 6 7 6 6 5 5 6 6 5 5 4
11 10 8 10 10 9 9 10 10 10 10 10 11 11 11 11 11 11 11 10 9 8 8 8 8 7 7 7 7 7 6 6 6 6 6 6 5 4 5 6 5 5 6 5
Wind_Direction
270 238 237 250 255 258 251 255 268 255 229 191 180 181 174 171 167 167 164 165 162 158 162 162 168 171 187 184 168 163 227 260 265 271 282 281 281 284 285 284 287 289 291 287
273 252 250 254 251 254 257 258 261 267 260 134 152 157 164 173 177 177 174 175 173 170 166 170 179 181 177 178 175 188 229 256 263 269 274 274 276 274 279 283 288 287 283 284
282 294 285 270 264 254 253 256 256 245 158 123 142 156 166 173 181 183 182 177 172 168 164 166 175 169 180 185 180 203 228 248 251 257 271 276 287 296 295 294 292 289 286 285
278 288 277 279 290 273 259 250 239 167 140 145 146 142 157 169 173 182 180 172 162 162 161 166 168 170 184 192 192 212 228 242 254 262 274 282 284 284 286 287 288 288 286 286
271 273 274 277 295 289 271 243 237 186 147 135 131 150 185 173 162 169 169 154 149 157 160 161 168 174 182 200 212 223 237 245 262 275 284 285 284 285 286 285 286 285 283 279
259 264 269 268 262 265 268 245 311 116 118 128 166 228 145 144 151 157 153 145 149 159 155 156 163 166 183 210 221 234 250 260 271 274 275 278 279 279 283 284 282 284 285 286
255 264 269 291 242 269 236 86 36 69 76 144 147 67 108 137 148 148 148 150 152 155 154 157 158 161 192 219 229 241 261 266 265 261 261 262 261 262 271 276 280 281 281 278
254 268 285 20 30 44 89 338 316 359 349 10 102 134 152 148 144 151 158 166 166 158 155 155 161 172 198 219 228 235 254 265 269 267 270 276 273 269 269 270 276 274 272 273
220 223 355 351 26 8 15 313 307 322 339 330 277 200 162 150 151 161 165 169 169 164 165 167 172 181 202 211 215 229 246 258 264 268 266 266 263 267 269 266 272 283 290 292
254 194 177 155 139 345 308 317 328 336 341 338 335 328 128 139 157 165 169 168 168 171 177 180 184 189 198 202 204 223 242 252 260 262 263 260 251 261 267 271 277 285 293 294
308 355 189 89 52 8 360 4 356 354 347 342 339 344 102 133 145 152 154 153 163 170 177 182 186 193 201 200 199 224 245 256 263 265 265 258 254 251 256 257 258 258 273 282
65 44 22 32 22 8 5 15 9 6 2 2 3 15 67 99 116 128 140 145 157 173 189 190 189 197 206 203 204 224 247 256 265 272 274 273 271 271 248 240 242 233 235 246
58 45 46 51 29 16 22 26 29 30 28 26 27 31 51 63 76 90 96 109 146 187 200 208 211 211 213 216 218 224 244 259 269 276 282 281 279 278 280 260 241 240 242 243
69 67 54 48 42 34 34 36 40 43 44 40 36 31 38 47 51 51 52 50 34 284 235 245 252 248 241 225 222 233 249 257 258 263 268 273 277 279 279 279 279 268 247 238
80 81 78 67 55 47 44 44 45 44 44 40 38 35 31 32 35 34 29 24 17 346 328 306 283 282 286 269 254 256 262 266 267 272 274 277 279 281 279 278 279 281 283 265
95 87 83 74 61 49 47 46 44 39 38 35 31 28 23 25 29 29 24 16 3 343 331 321 314 320 317 295 283 275 265 261 263 272 275 275 277 279 281 279 279 282 287 287
108 95 81 72 64 52 45 43 40 32 28 27 23 23 20 18 15 15 7 359 343 325 320 328 331 329 316 296 281 278 278 274 253 255 263 270 276 283 285 283 284 285 285 284
89 89 83 71 60 50 38 32 28 22 16 12 11 10 6 5 1 356 349 342 328 320 336 344 342 324 303 293 286 282 282 283 281 277 272 272 277 281 283 283 284 286 286 288
91 85 78 67 53 38 22 13 8 5 2 359 358 357 354 352 348 339 333 325 316 316 340 340 330 314 302 301 299 281 279 281 282 282 281 280 277 275 279 283 285 287 288 291
86 78 67 51 36 21 7 1 354 349 348 345 343 342 338 337 334 328 323 311 313 336 341 333 318 306 306 321 315 298 289 285 285 284 283 283 281 282 284 286 288 294 293 293
75 46 26 14 6 357 353 349 338 330 330 331 329 326 326 325 319 315 310 307 329 1 335 317 306 320 331 331 311 300 294 293 292 289 285 282 282 284 286 292 296 298 297 299
20 5 352 345 341 338 335 328 320 317 319 319 319 320 319 314 311 311 304 305 337 13 338 328 332 348 337 322 310 301 295 292 291 290 288 286 286 287 286 290 290 295 303 304
345 336 327 324 324 322 318 313 310 311 313 313 311 306 304 308 307 306 306 322 339 346 330 326 331 323 315 307 302 299 297 295 296 302 303 299 298 298 299 302 300 299 307 311
317 312 311 312 311 307 303 305 307 304 299 296 293 294 299 298 298 302 312 322 325 318 316 313 293 295 294 296 300 301 302 307 312 316 318 316 309 305 315 323 319 319 322 321
303 302 297 296 295 296 302 299 295 291 292 298 304 312 312 312 314 317 314 310 311 308 314 313 297 292 295 303 306 309 313 325 330 328 319 315 314 321 323 323 322 317 317 318
289 286 288 289 289 287 288 291 298 307 312 313 314 316 315 314 312 308 303 307 311 318 318 320 316 305 310 317 324 329 332 332 329 325 325 325 325 331 330 326 327 326 322 326
289 286 281 282 291 297 304 307 309 309 310 311 314 316 314 311 307 304 304 305 309 316 320 317 318 319 319 326 333 335 334 333 332 331 334 332 330 331 335 334 335 333 330 332
Height
1474 1476 1480 1478 1473 1467 1466 1467 1473 1473 1473 1470 1471 1474 1477 1481 1486 1490 1495 1500 1503 1507 1511 1513 1515 1517 1518 1518 1519 1518 1518 1518 1517 1516 1514 1513 1511 1510 1508 1507 1505 1503 1502 1500
1473 1470 1470 1469 1463 1459 1459 1458 1460 1463 1464 1461 1466 1471 1475 1480 1484 1488 1492 1496 1501 1504 1508 1510 1513 1514 1515 1515 1515 1515 1515 1515 1514 1513 1511 1510 1508 1507 1505 1503 1502 1500 1498 1496
1474 1466 1466 1469 1455 1453 1453 1451 1454 1462 1462 1461 1466 1470 1474 1478 1482 1486 1490 1493 1497 1501 1504 1507 1509 1511 1512 1512 1512 1512 1512 1512 1511 1510 1508 1507 1505 1504 1502 1500 1498 1496 1494 1492
1472 1474 1488 1465 1446 1445 1448 1449 1449 1452 1456 1460 1464 1469 1473 1477 1481 1484 1488 1491 1494 1498 1501 1504 1506 1507 1508 1509 1509 1509 1509 1509 1508 1507 1505 1504 1502 1500 1498 1496 1494 1492 1490 1488
1473 1478 1473 1458 1450 1449 1452 1453 1449 1451 1455 1459 1463 1468 1471 1474 1478 1482 1486 1488 1491 1495 1498 1500 1502 1504 1505 1506 1506 1506 1506 1506 1505 1503 1502 1500 1498 1496 1494 1492 1490 1488 1486 1484
1467 1476 1481 1463 1451 1450 1454 1461 1451 1453 1456 1460 1463 1468 1470 1472 1476 1480 1483 1486 1489 1492 1495 1497 1499 1500 1501 1502 1503 1503 1503 1502 1501 1499 1498 1496 1494 1492 1490 1488 1486 1484 1482 1480
1466 1467 1460 1454 1450 1452 1469 1469 1456 1456 1459 1461 1463 1467 1471 1472 1475 1478 1481 1484 1487 1490 1492 1494 1495 1497 1497 1498 1499 1499 1499 1498 1496 1495 1493 1492 1490 1488 1486 1484 1482 1480 1478 1476
1462 1470 1471 1456 1454 1462 1466 1461 1460 1459 1460 1461 1464 1466 1468 1471 1474 1477 1479 1482 1484 1487 1489 1490 1492 1493 1493 1494 1495 1495 1494 1493 1492 1491 1489 1488 1486 1484 1482 1480 1478 1476 1474 1472
1460 1468 1465 1463 1462 1463 1461 1461 1461 1460 1460 1461 1463 1464 1466 1469 1471 1474 1477 1479 1482 1483 1486 1487 1488 1489 1490 1490 1491 1490 1490 1489 1488 1486 1485 1483 1482 1480 1479 1477 1475 1473 1471 1469
1456 1458 1459 1461 1463 1463 1462 1462 1461 1461 1461 1461 1462 1463 1464 1467 1469 1472 1474 1476 1479 1481 1483 1484 1485 1485 1486 1486 1486 1486 1485 1484 1483 1482 1481 1479 1478 1476 1475 1473 1471 1470 1468 1465
1456 1458 1460 1462 1463 1463 1462 1462 1462 1461 1461 1462 1462 1463 1463 1465 1467 1469 1471 1474 1476 1478 1479 1480 1481 1482 1482 1482 1482 1481 1481 1480 1479 1478 1477 1475 1473 1472 1470 1468 1467 1465 1463 1461
1457 1460 1460 1462 1463 1463 1463 1463 1463 1462 1462 1462 1462 1462 1463 1464 1466 1468 1470 1472 1474 1475 1477 1478 1478 1478 1479 1479 1478 1477 1477 1476 1475 1474 1473 1471 1469 1467 1465 1464 1461 1459 1457 1456
1457 1459 1461 1462 1464 1464 1464 1464 1463 1463 1463 1464 1463 1463 1463 1464 1465 1467 1469 1471 1472 1473 1475 1475 1475 1475 1475 1475 1474 1473 1472 1471 1470 1469 1468 1466 1464 1462 1460 1458 1456 1454 1452 1450
1459 1460 1462 1464 1465 1465 1465 1465 1465 1465 1465 1465 1465 1465 1466 1466 1467 1468 1469 1470 1471 1471 1472 1472 1472 1472 1472 1470 1469 1468 1467 1466 1465 1464 1462 1461 1459 1457 1455 1452 1451 1448 1446 1444
1460 1462 1464 1466 1467 1467 1467 1467 1468 1468 1468 1468 1468 1468 1468 1468 1468 1468 1469 1469 1469 1470 1469 1469 1469 1468 1467 1466 1465 1463 1462 1461 1460 1459 1458 1456 1454 1452 1450 1447 1445 1443 1441 1439
1462 1465 1467 1469 1470 1470 1471 1471 1471 1471 1471 1471 1471 1470 1470 1470 1470 1469 1469 1468 1468 1468 1467 1466 1465 1464 1462 1461 1460 1458 1457 1456 1455 1453 1452 1450 1449 1447 1444 1442 1440 1438 1436 1434
1465 1468 1470 1472 1473 1474 1474 1474 1474 1474 1474 1473 1473 1472 1471 1471 1470 1469 1468 1468 1467 1466 1465 1464 1462 1460 1458 1457 1455 1453 1452 1451 1449 1447 1446 1444 1443 1441 1439 1437 1435 1433 1431 1429
1468 1471 1473 1475 1476 1476 1476 1476 1476 1476 1475 1474 1473 1472 1472 1471 1470 1469 1468 1466 1465 1463 1462 1460 1458 1456 1454 1452 1450 1448 1447 1445 1444 1442 1440 1439 1437 1436 1434 1432 1430 1428 1425 1424
1472 1474 1475 1477 1477 1478 1478 1477 1477 1476 1475 1474 1473 1472 1471 1470 1469 1467 1466 1464 1462 1460 1458 1456 1454 1452 1450 1448 1445 1443 1441 1440 1438 1437 1435 1433 1432 1430 1428 1427 1425 1423 1421 1419
1475 1476 1477 1477 1478 1478 1478 1477 1476 1475 1474 1473 1472 1471 1469 1468 1467 1465 1463 1462 1460 1457 1455 1453 1450 1448 1446 1443 1441 1439 1437 1435 1433 1431 1429 1427 1426 1424 1423 1421 1420 1418 1416 1414
1476 1477 1477 1478 1478 1478 1477 1476 1475 1474 1473 1471 1470 1469 1467 1465 1464 1462 1460 1458 1456 1453 1451 1449 1447 1444 1442 1439 1437 1434 1432 1430 1428 1426 1424 1423 1421 1419 1418 1416 1415 1414 1412 1410
1477 1477 1478 1478 1477 1477 1476 1475 1473 1472 1470 1469 1467 1466 1464 1462 1460 1458 1456 1455 1452 1449 1447 1446 1444 1440 1437 1435 1432 1430 1428 1425 1423 1421 1419 1418 1416 1414 1413 1411 1410 1409 1408 1406
1477 1477 1477 1477 1476 1475 1473 1472 1470 1468 1467 1465 1464 1462 1460 1458 1457 1455 1453 1451 1448 1446 1444 1442 1439 1436 1433 1430 1427 1425 1423 1420 1418 1416 1414 1413 1411 1410 1409 1407 1406 1405 1404 1402
1476 1476 1475 1474 1473 1472 1470 1468 1466 1465 1463 1461 1459 1458 1456 1454 1452 1450 1449 1446 1444 1442 1439 1437 1434 1431 1428 1425 1423 1420 1418 1416 1414 1412 1410 1408 1407 1406 1405 1403 1402 1401 1400 1399
1474 1473 1472 1471 1469 1467 1465 1464 1462 1460 1458 1456 1455 1453 1452 1450 1448 1446 1445 1442 1440 1437 1435 1432 1429 1426 1423 1421 1418 1416 1414 1411 1409 1408 1406 1405 1403 1402 1401 1400 1399 1398 1397 1396
1470 1469 1468 1466 1465 1463 1461 1459 1457 1456 1454 1453 1451 1450 1448 1446 1444 1442 1440 1438 1435 1433 1430 1427 1425 1422 1419 1417 1414 1412 1410 1408 1406 1404 1403 1401 1400 1398 1398 1396 1396 1395 1394 1393
1466 1464 1463 1461 1460 1458 1457 1455 1454 1452 1451 1449 1447 1446 1444 1442 1439 1437 1435 1433 1430 1428 1425 1423 1421 1418 1416 1413 1410 1408 1406 1404 1402 1401 1399 1398 1396 1395 1395 1394 1393 1392 1391 1390